DMSP 5D-3 F18 (USA 210)

Satellite information

Favourite Embed

Satellite Type and Status

PAYLOADIN ORBIT

Key statistics

Satellite DMSP 5D-3 F18 (USA 210) at a glance.

Uptime

5845

Days in orbit

Revolutions

≈ 14.1

Per day

Orbit

SSO

Sun Synchronous Orbit

Inclination

98.9

Latest

Satellite identification and parameters

Extended collection of information and parameters for DMSP 5D-3 F18 (USA 210).

Object identification

Identified? True

Debris? False

Object name: DMSP 5D-3 F18 (USA 210)

International designator: 2009-057A

Object number (NORAD): 35951

Object ID (CCSDS): 35951

Country: UNITED STATES OF AMERICA (US)

Current information (Y/N): Y

RCS size: LARGE

Orbital parameters

Period: 101.787 minutes

Inclination: 98.8765 deg

SMA: 7221.387 km

Apoapsis: 850.68 km

Periapsis: 835.823 km

RAAN: 268.6082 deg

Eccentricy: 0.00102869

Argument of periapsis: 212.7452 deg

Mean anomaly: 147.3085 deg

Mean motion: 14.14724398 rev/day

Mean motion (dot): 0.00000406 rev/day2

B* drag term: 0.00023393752 1/REarth

Two-line elements (TLE)

Creation date: Oct. 19, 2025, 2:20 a.m.

Reference frame: TEME

Reference center: EARTH

Epoch: Oct. 18, 2025, 9:57 p.m. UTC

TLE line 0: 0 DMSP 5D-3 F18 (USA 210)

TLE line 1: 1 35951U 09057A 25291.91524030 .00000406 00000-0 23394-3 0 9991

TLE line 2: 2 35951 98.8765 268.6082 0010287 212.7452 147.3085 14.14724398825478

Live tracking on map

Real-time ground track for satellite DMSP 5D-3 F18 (USA 210).

In-orbit conjunctions

There are no conjunctions computed for DMSP 5D-3 F18 (USA 210), at the moment. Check back to stay up to date, as we update our databases every day.

Go to all conjunctions

Associated space launch

The Defence Metoerological Satellite Program (DMSP) monitors meteorological, oceanographic and solar-terrestrial physics for the Department of Defence, managed by Air Force Space Command and operated by NOAA.

DMSP 5D-3 F18 (USA 210) was lifted into orbit during the mission ‘Atlas V 401 | DMSP-5D3 F18 (USA-210)’, on board a Atlas V 401 space rocket.

The launch took place on Oct. 18, 2009, 4:12 p.m. from Space Launch Complex 3E.

For more information about the launch, click the button.

Launch to space Atlas V 401 | DMSP-5D3 F18 (USA-210)
Atlas V 401 | DMSP-5D3 F18 (USA-210)

Agency: N/A

Status: Launch Successful

Launch date: Oct. 18, 2009, 4:12 p.m. UTC

Rocket: Atlas V 401

Launch pad: Space Launch Complex 3E

Location: Vandenberg SFB, CA, USA

...

Latest news about this satellite

There are no fresh news available about this satellite. Check back as we update our databases every day.


Newsletter sign-up

Weekly statistics, charts and insights to help you stay on top of the space industry.